x

Prestwick Rnas (03136) Weather Station

11:00pm - Tue 21st Oct 2014 All times are BST. 1 hours from GMT.

  • Wind
    15mph, 33mph gusts
  • 空気 Temp 49°f
  • Sea Pressure 1015mb
  • Prestwick Rnas
  • Prestwick Rnas

More Historic Weather Station data

Upgrade to MSW Pro to gain access to the past 30 days of data for over 8000 Wavebouys and Weather Stations around the globe.

Join Pro

Comparision Forecast

View Surf forecast
   
Tue 10/21 11:00pm 15 33 mph 1015mb 49f
10:00pm 17 37 mph 1015mb 47f
9:00pm 17 40 mph 1014mb 46f
8:00pm 24 45 mph 1013mb 47f
7:00pm 23 44 mph 1012mb 47f
6:00pm 19 38 mph 1010mb 48f
5:00pm 19 38 mph 1009mb 49f
4:00pm 18 41 mph 1007mb 48f
3:00pm 22 46 mph 1005mb 49f
2:00pm 24 44 mph 1003mb 50f
1:00pm 21 46 mph 1001mb 49f
12:00pm 24 46 mph 999mb 49f
11:00am 23 41 mph 997mb 50f
10:00am 21 48 mph 996mb 49f
9:00am 26 41 mph 994mb 50f
8:00am 24 41 mph 992mb 49f
7:00am 19 40 mph 991mb 49f
6:00am 22 46 mph 989mb 49f
5:00am 25 48 mph 986mb 53f
4:00am 30 43 mph 985mb 56f
3:00am 28 43 mph 987mb 56f
2:00am 29 43 mph 989mb 55f
1:00am 24 34 mph 992mb 55f
12:00am 23 39 mph 994mb 55f
Mon 10/20 11:00pm 23 37 mph 996mb 56f
10:00pm 23 36 mph 998mb 55f
9:00pm 23 31 mph 1000mb 56f
8:00pm 18
mph
1001mb 55f
7:00pm 17
mph
1003mb 55f
6:00pm 15
mph
1004mb 55f
5:00pm 14
mph
1005mb 56f
4:00pm 17
mph
1006mb 56f
3:00pm 18 29 mph 1006mb 56f
2:00pm 17 30 mph 1007mb 56f
1:00pm 19 30 mph 1007mb 55f
12:00pm 21 29 mph 1008mb 54f
11:00am 17
mph
1008mb 54f
10:00am 18
mph
1008mb 53f
9:00am 18
mph
1008mb 54f
8:00am 21 29 mph 1007mb 53f
7:00am 18 33 mph 1007mb 53f
6:00am 18 29 mph 1007mb 54f
5:00am 17 31 mph 1007mb 53f
4:00am 18 30 mph 1007mb 53f
3:00am 19 29 mph 1007mb 54f
2:00am 19 31 mph 1007mb 54f
1:00am 22 31 mph 1007mb 54f
12:00am 18 30 mph 1007mb 53f
Sun 10/19 11:00pm 18 29 mph 1006mb 54f
10:00pm 16
mph
1006mb 54f
9:00pm 19 29 mph 1005mb 54f
8:00pm 16 34 mph 1004mb 53f
7:00pm 18 34 mph 1004mb 54f
6:00pm 21 33 mph 1003mb 54f
5:00pm 21
mph
1002mb 56f
4:00pm 17 33 mph 1001mb 56f
3:00pm 22 40 mph 1000mb 56f
2:00pm 31 46 mph 998mb 57f
1:00pm 26 44 mph 998mb 56f
12:00pm 29 41 mph 998mb 57f
11:00am 29 48 mph 997mb 57f
10:00am 28 43 mph 996mb 56f
9:00am 26 46 mph 996mb 56f
8:00am 26 43 mph 995mb 57f
7:00am 28 41 mph 995mb 58f
6:00am 25 39 mph 996mb 57f
5:00am 26 40 mph 996mb 59f
4:00am 28 38 mph 997mb 59f
3:00am 24 38 mph 997mb 59f
2:00am 23 36 mph 998mb 59f
1:00am 22 37 mph 999mb 59f
12:00am 22 32 mph 999mb 59f
Sat 10/18 11:00pm 22 32 mph 999mb 59f
10:00pm 22 33 mph 999mb 59f
9:00pm 22 33 mph 999mb 59f
8:00pm 23 33 mph 999mb 60f
7:00pm 24 38 mph 998mb 60f
6:00pm 23 36 mph 998mb 61f
5:00pm 25 37 mph 998mb 62f
4:00pm 28 39 mph 998mb 63f
3:00pm 23 39 mph 998mb 64f
2:00pm 26 38 mph 998mb 65f
1:00pm 22 32 mph 998mb 64f
12:00pm 24 34 mph 998mb 63f
11:00am 23 32 mph 997mb 62f
10:00am 23 31 mph 997mb 60f
9:00am 17 29 mph 996mb 59f
8:00am 19 29 mph 995mb 60f
7:00am 19 36 mph 995mb 60f
6:00am 17
mph
994mb 60f
5:00am 16 29 mph 994mb 61f
4:00am 18 31 mph 995mb 61f
3:00am 13 29 mph 995mb 61f
2:00am 21 37 mph 995mb 62f
1:00am 23 43 mph 995mb 62f
12:00am 26 39 mph 996mb 60f